This is the latest recevied weather packets stored in our database for station/object K7FRY. If no packets are shown the sender has not sent any weather packets the latest 10 day(s).
| Time | Temp. | Humidity | Pressure | Rain* | Wind** | Luminosity | Snow |
|---|---|---|---|---|---|---|---|
| 1777568766 | 26.67° C | 19% | 1012.8 hPa | 0 mm | - | 822 W/m² | - |
| 1777568464 | 26.67° C | 19% | 1013.1 hPa | 0 mm | - | 795 W/m² | - |
| 1777568160 | 25.56° C | 19% | 1012.9 hPa | 0 mm | - | 814 W/m² | - |
| 1777567857 | 25.56° C | 20% | 1013.2 hPa | 0 mm | - | 709 W/m² | - |
| 1777567553 | 25° C | 20% | 1013.4 hPa | 0 mm | - | 728 W/m² | - |
| 1777567250 | 25° C | 20% | 1013.1 hPa | 0 mm | - | 336 W/m² | - |
| 1777566949 | 25.56° C | 20% | 1013.2 hPa | 0 mm | - | 750 W/m² | - |
| 1777566646 | 25.56° C | 19% | 1013.1 hPa | 0 mm | - | 734 W/m² | - |
| 1777566344 | 24.44° C | 20% | 1013.1 hPa | 0 mm | - | 770 W/m² | - |
| 1777566041 | 25° C | 20% | 1013.2 hPa | 0 mm | - | 845 W/m² | - |
| 1777565736 | 23.89° C | 22% | 1013.4 hPa | 0 mm | - | 793 W/m² | - |
| 1777565433 | 23.89° C | 21% | 1013.3 hPa | 0 mm | - | 623 W/m² | - |
| 1777565129 | 22.78° C | 22% | 1013.5 hPa | 0 mm | - | 501 W/m² | - |
| 1777564826 | 23.33° C | 22% | 1013.7 hPa | 0 mm | - | 538 W/m² | - |
| 1777564521 | 22.78° C | 23% | 1013.6 hPa | 0 mm | - | 304 W/m² | - |
| 1777564216 | 22.22° C | 23% | 1013.6 hPa | 0 mm | - | 225 W/m² | - |
| 1777563913 | 22.78° C | 22% | 1013.6 hPa | 0 mm | - | 474 W/m² | - |
| 1777563609 | 21.67° C | 23% | 1013.4 hPa | 0 mm | - | 482 W/m² | - |
| 1777563309 | 21.67° C | 23% | 1013.6 hPa | 0 mm | - | 488 W/m² | - |
| 1777563005 | 21.67° C | 23% | 1013.7 hPa | 0 mm | - | 383 W/m² | - |
| 1777562700 | 21.11° C | 23% | 1013.9 hPa | 0 mm | - | 382 W/m² | - |
| 1777562395 | 20.56° C | 23% | 1013.8 hPa | 0 mm | - | 388 W/m² | - |
| 1777562091 | 20° C | 24% | 1014 hPa | 0 mm | - | 189 W/m² | - |
| 1777561788 | 20° C | 24% | 1013.9 hPa | 0 mm | - | 212 W/m² | - |
| 1777561484 | 20° C | 24% | 1013.8 hPa | 0 mm | - | 246 W/m² | - |
* Rain latest hour (hover to see other rain measurements)
** Current wind speed in m/s (hover to see current wind gust speed)